Private Wetterstation Wechselburg
Wetterdaten: Dienstag, 29.11.2011
Datum Zeit Temp. +2m Bodentemp. Temp.+5cm Temp. Wind Windchill X Diff Temp. Feuchte +2m Feuchte +5cm Sonnenschein Luftdruck Regen Wind Richtung Richtung Sonnenschein UV Taupunkt Windchill Windben
29.11.2011 00:00 -3,0 C 10,6 C -2,4 C -3,4 C -4,1 C 0,0 C 90 % 89 % 0 % 1027,6 hPa 0,0 l/m 0,0 km/h (0 Bft) W-SW 247 0 min 0,0 UV-I -4,4 C -4,1 C 0,0 km/h (0 Bft)
29.11.2011 00:13 -2,9 C 10,6 C -2,4 C -3,3 C -4,0 C 0,0 C 90 % 89 % 0 % 1027,6 hPa 0,0 l/m 0,0 km/h (0 Bft) SW 225 0 min 0,0 UV-I -4,3 C -4,0 C 0,0 km/h (0 Bft)
29.11.2011 00:14 -2,9 C 10,6 C -2,4 C -3,3 C -4,0 C 0,0 C 90 % 89 % 0 % 1027,6 hPa 0,0 l/m 0,0 km/h (0 Bft) SW 225 0 min 0,0 UV-I -4,3 C -4,0 C 0,0 km/h (0 Bft)
29.11.2011 00:25 -3,2 C 10,5 C -2,4 C -3,6 C -4,3 C 0,0 C 90 % 89 % 0 % 1027,6 hPa 0,0 l/m 0,0 km/h (0 Bft) S-SW 202 0 min 0,0 UV-I -4,6 C -4,3 C 0,0 km/h (0 Bft)
29.11.2011 00:30 -3,2 C 10,5 C -2,5 C -3,5 C -4,2 C 0,0 C 90 % 89 % 0 % 1027,6 hPa 0,0 l/m 0,0 km/h (0 Bft) S-SW 202 0 min 0,0 UV-I -4,6 C -4,2 C 0,0 km/h (0 Bft)
29.11.2011 00:35 -3,3 C 10,5 C -2,5 C -3,6 C -4,2 C 0,0 C 90 % 89 % 0 % 1027,6 hPa 0,0 l/m 0,0 km/h (0 Bft) SW 225 0 min 0,0 UV-I -4,7 C -4,2 C 0,0 km/h (0 Bft)
29.11.2011 00:40 -3,3 C 10,5 C -2,5 C -3,7 C -4,4 C 0,0 C 90 % 89 % 0 % 1027,6 hPa 0,0 l/m 0,0 km/h (0 Bft) SW 225 0 min 0,0 UV-I -4,7 C -4,4 C 0,0 km/h (0 Bft)
29.11.2011 00:45 -3,3 C 10,5 C -2,5 C -3,7 C -4,4 C 0,0 C 90 % 89 % 0 % 1027,6 hPa 0,0 l/m 0,0 km/h (0 Bft) SW 225 0 min 0,0 UV-I -4,7 C -4,4 C 0,0 km/h (0 Bft)
29.11.2011 00:50 -3,3 C 10,5 C -2,5 C -3,7 C -4,4 C 0,0 C 90 % 89 % 0 % 1027,6 hPa 0,0 l/m 0,0 km/h (0 Bft) S-SW 202 0 min 0,0 UV-I -4,7 C -4,4 C 0,0 km/h (0 Bft)
29.11.2011 00:55 -3,3 C 10,5 C -2,5 C -3,7 C -4,4 C 0,0 C 90 % 89 % 0 % 1027,6 hPa 0,0 l/m 0,0 km/h (0 Bft) W-SW 247 0 min 0,0 UV-I -4,7 C -4,4 C 0,0 km/h (0 Bft)
29.11.2011 01:00 -3,3 C 10,5 C -2,5 C -3,7 C -4,4 C 0,0 C 90 % 89 % 0 % 1026,9 hPa 0,0 l/m 0,0 km/h (0 Bft) W-SW 247 0 min 0,0 UV-I -4,7 C -4,4 C 0,0 km/h (0 Bft)
29.11.2011 01:14 -3,6 C 10,4 C -2,5 C -4,0 C -4,8 C 0,0 C 90 % 89 % 0 % 1026,9 hPa 0,0 l/m 0,0 km/h (0 Bft) N 0 0 min 0,0 UV-I -5,0 C -4,8 C 0,0 km/h (0 Bft)
29.11.2011 01:20 -3,6 C 10,4 C -2,8 C -4,0 C -4,7 C 0,0 C 90 % 89 % 0 % 1026,9 hPa 0,0 l/m 0,0 km/h (0 Bft) SW 225 0 min 0,0 UV-I -5,0 C -4,7 C 0,0 km/h (0 Bft)
29.11.2011 01:25 -3,5 C 10,4 C -2,9 C -3,8 C -4,5 C 0,0 C 90 % 89 % 0 % 1026,9 hPa 0,0 l/m 0,0 km/h (0 Bft) S 180 0 min 0,0 UV-I -4,9 C -4,5 C 0,0 km/h (0 Bft)
29.11.2011 01:30 -3,5 C 10,4 C -2,9 C -3,8 C -4,5 C 0,0 C 90 % 89 % 0 % 1026,9 hPa 0,0 l/m 0,0 km/h (0 Bft) S-SW 202 0 min 0,0 UV-I -4,9 C -4,5 C 0,0 km/h (0 Bft)
29.11.2011 01:35 -3,5 C 10,4 C -2,9 C -3,9 C -4,6 C 0,0 C 90 % 89 % 0 % 1026,9 hPa 0,0 l/m 0,0 km/h (0 Bft) W-SW 247 0 min 0,0 UV-I -4,9 C -4,6 C 0,0 km/h (0 Bft)
29.11.2011 01:40 -3,5 C 10,4 C -2,9 C -3,9 C -4,6 C 0,0 C 90 % 89 % 0 % 1026,9 hPa 0,0 l/m 0,0 km/h (0 Bft) W-SW 247 0 min 0,0 UV-I -4,9 C -4,6 C 0,0 km/h (0 Bft)
29.11.2011 01:45 -3,6 C 10,3 C -2,9 C -4,0 C -4,7 C 0,0 C 90 % 89 % 0 % 1026,9 hPa 0,0 l/m 0,0 km/h (0 Bft) W-SW 247 0 min 0,0 UV-I -5,0 C -4,7 C 0,0 km/h (0 Bft)
29.11.2011 01:50 -3,7 C 10,3 C -2,9 C -4,0 C -4,7 C 0,0 C 90 % 89 % 0 % 1026,9 hPa 0,0 l/m 0,0 km/h (0 Bft) W-SW 247 0 min 0,0 UV-I -5,1 C -4,7 C 0,0 km/h (0 Bft)
29.11.2011 01:55 -3,7 C 10,3 C -2,9 C -4,1 C -4,9 C 0,0 C 90 % 89 % 0 % 1026,9 hPa 0,0 l/m 0,0 km/h (0 Bft) W-SW 247 0 min 0,0 UV-I -5,1 C -4,9 C 0,0 km/h (0 Bft)
29.11.2011 02:00 -3,9 C 10,3 C -2,9 C -4,2 C -4,8 C 0,0 C 90 % 89 % 0 % 1026,9 hPa 0,0 l/m 0,0 km/h (0 Bft) W-SW 247 0 min 0,0 UV-I -5,3 C -4,8 C 0,0 km/h (0 Bft)
29.11.2011 02:11 -3,7 C 10,3 C -2,9 C -4,0 C -4,7 C 0,0 C 90 % 89 % 0 % 1026,9 hPa 0,0 l/m 0,0 km/h (0 Bft) N 0 0 min 0,0 UV-I -5,1 C -4,7 C 0,0 km/h (0 Bft)
29.11.2011 02:20 -3,9 C 10,3 C -3,1 C -4,2 C -4,8 C 0,0 C 90 % 89 % 0 % 1027,1 hPa 0,0 l/m 0,0 km/h (0 Bft) W-SW 247 0 min 0,0 UV-I -5,3 C -4,8 C 0,0 km/h (0 Bft)
29.11.2011 02:25 -3,9 C 10,2 C -2,9 C -4,3 C -5,0 C 0,0 C 90 % 89 % 0 % 1027,1 hPa 0,0 l/m 0,0 km/h (0 Bft) W-SW 247 0 min 0,0 UV-I -5,3 C -5,0 C 0,0 km/h (0 Bft)
29.11.2011 02:30 -3,9 C 10,2 C -2,9 C -4,3 C -5,1 C 0,0 C 90 % 89 % 0 % 1027,1 hPa 0,0 l/m 0,0 km/h (0 Bft) W-SW 247 0 min 0,0 UV-I -5,3 C -5,1 C 0,0 km/h (0 Bft)
29.11.2011 02:35 -4,0 C 10,2 C -3,2 C -4,4 C -5,2 C 0,0 C 90 % 89 % 0 % 1027,1 hPa 0,0 l/m 0,0 km/h (0 Bft) W-SW 247 0 min 0,0 UV-I -5,4 C -5,2 C 0,0 km/h (0 Bft)
29.11.2011 02:40 -3,9 C 10,2 C -3,3 C -4,3 C -5,0 C 0,0 C 90 % 88 % 0 % 1026,9 hPa 0,0 l/m 0,0 km/h (0 Bft) S-SO 157 0 min 0,0 UV-I -5,3 C -5,0 C 0,0 km/h (0 Bft)
29.11.2011 02:45 -3,9 C 10,2 C -3,3 C -4,2 C -4,9 C 0,0 C 90 % 89 % 0 % 1026,9 hPa 0,0 l/m 0,0 km/h (0 Bft) S-SO 157 0 min 0,0 UV-I -5,3 C -4,9 C 0,0 km/h (0 Bft)
29.11.2011 02:50 -3,9 C 10,2 C -3,3 C -4,2 C -4,9 C 0,0 C 90 % 89 % 0 % 1026,9 hPa 0,0 l/m 0,0 km/h (0 Bft) S 180 0 min 0,0 UV-I -5,3 C -4,9 C 0,0 km/h (0 Bft)
29.11.2011 02:55 -4,0 C 10,2 C -3,3 C -4,3 C -5,0 C 0,0 C 90 % 89 % 0 % 1026,9 hPa 0,0 l/m 0,0 km/h (0 Bft) S 180 0 min 0,0 UV-I -5,4 C -5,0 C 0,0 km/h (0 Bft)
29.11.2011 03:00 -4,1 C 10,2 C -3,3 C -4,4 C -5,1 C 0,0 C 90 % 89 % 0 % 1026,3 hPa 0,0 l/m 0,0 km/h (0 Bft) S 180 0 min 0,0 UV-I -5,5 C -5,1 C 0,0 km/h (0 Bft)
29.11.2011 03:15 -4,1 C 10,1 C -3,4 C -4,4 C -5,0 C 0,0 C 90 % 89 % 0 % 1026,3 hPa 0,0 l/m 0,2 km/h (0 Bft) SW 225 0 min 0,0 UV-I -5,5 C -5,0 C 2,3 km/h (1 Bft)
29.11.2011 03:17 -4,1 C 10,1 C -3,4 C -4,4 C -5,0 C 0,0 C 90 % 89 % 0 % 1026,3 hPa 0,0 l/m 0,2 km/h (0 Bft) SW 225 0 min 0,0 UV-I -5,5 C -5,0 C 2,3 km/h (1 Bft)
29.11.2011 03:20 -4,1 C 10,1 C -3,3 C -4,4 C -5,0 C 0,0 C 90 % 89 % 0 % 1026,0 hPa 0,0 l/m 0,3 km/h (0 Bft) S 180 0 min 0,0 UV-I -5,5 C -5,0 C 0,0 km/h (0 Bft)
29.11.2011 03:25 -4,1 C 10,1 C -3,3 C -4,4 C -5,0 C 0,0 C 90 % 89 % 0 % 1026,0 hPa 0,0 l/m 0,3 km/h (0 Bft) S-SW 202 0 min 0,0 UV-I -5,5 C -5,0 C 0,0 km/h (0 Bft)
29.11.2011 03:30 -4,1 C 10,1 C -3,3 C -4,4 C -5,0 C 0,0 C 90 % 89 % 0 % 1026,0 hPa 0,0 l/m 0,0 km/h (0 Bft) SW 225 0 min 0,0 UV-I -5,5 C -5,0 C 0,0 km/h (0 Bft)
29.11.2011 03:35 -3,9 C 10,1 C -3,3 C -4,3 C -5,0 C 0,0 C 90 % 89 % 0 % 1026,0 hPa 0,0 l/m 0,0 km/h (0 Bft) W-SW 247 0 min 0,0 UV-I -5,3 C -5,0 C 0,0 km/h (0 Bft)
29.11.2011 03:40 -4,0 C 10,1 C -3,1 C -4,3 C -5,0 C 0,0 C 90 % 89 % 0 % 1025,6 hPa 0,0 l/m 0,2 km/h (0 Bft) S 180 0 min 0,0 UV-I -5,4 C -5,0 C 0,0 km/h (0 Bft)
29.11.2011 03:45 -4,0 C 10,1 C -3,3 C -4,3 C -4,9 C 0,0 C 90 % 89 % 0 % 1025,6 hPa 0,0 l/m 0,0 km/h (0 Bft) W-SW 247 0 min 0,0 UV-I -5,4 C -4,9 C 0,0 km/h (0 Bft)
29.11.2011 03:50 -4,0 C 10,1 C -3,3 C -4,3 C -4,9 C 0,0 C 90 % 89 % 0 % 1025,6 hPa 0,0 l/m 0,0 km/h (0 Bft) W-SW 247 0 min 0,0 UV-I -5,4 C -4,9 C 0,0 km/h (0 Bft)
29.11.2011 03:55 -4,0 C 10,1 C -3,3 C -4,3 C -4,9 C 0,0 C 90 % 89 % 0 % 1025,6 hPa 0,0 l/m 0,0 km/h (0 Bft) W-SW 247 0 min 0,0 UV-I -5,4 C -4,9 C 0,0 km/h (0 Bft)
29.11.2011 04:00 -4,0 C 10,0 C -3,3 C -4,3 C -5,0 C 0,0 C 90 % 89 % 0 % 1025,8 hPa 0,0 l/m 0,0 km/h (0 Bft) W-SW 247 0 min 0,0 UV-I -5,4 C -5,0 C 0,0 km/h (0 Bft)
29.11.2011 04:15 -4,1 C 10,0 C -3,5 C -4,6 C -5,5 C 0,0 C 90 % 89 % 0 % 1025,8 hPa 0,0 l/m 0,0 km/h (0 Bft) SW 225 0 min 0,0 UV-I -5,5 C -5,5 C 0,0 km/h (0 Bft)
29.11.2011 04:17 -4,1 C 10,0 C -3,5 C -4,6 C -5,5 C 0,0 C 90 % 89 % 0 % 1025,8 hPa 0,0 l/m 0,0 km/h (0 Bft) SW 225 0 min 0,0 UV-I -5,5 C -5,5 C 0,0 km/h (0 Bft)
29.11.2011 04:20 -4,1 C 10,0 C -3,6 C -4,6 C -5,5 C 0,0 C 90 % 89 % 0 % 1025,1 hPa 0,0 l/m 0,0 km/h (0 Bft) W-SW 247 0 min 0,0 UV-I -5,5 C -5,5 C 0,0 km/h (0 Bft)
29.11.2011 04:25 -4,3 C 10,0 C -3,7 C -4,7 C -5,5 C 0,0 C 90 % 89 % 0 % 1025,1 hPa 0,0 l/m 0,5 km/h (0 Bft) W-SW 247 0 min 0,0 UV-I -5,7 C -5,5 C 0,0 km/h (0 Bft)
29.11.2011 04:30 -4,3 C 10,0 C -3,7 C -4,7 C -5,4 C 0,0 C 90 % 89 % 0 % 1025,1 hPa 0,0 l/m 0,5 km/h (0 Bft) W-SW 247 0 min 0,0 UV-I -5,7 C -5,4 C 3,1 km/h (1 Bft)
29.11.2011 04:35 -4,4 C 9,9 C -3,7 C -4,8 C -5,5 C 0,0 C 90 % 89 % 0 % 1025,1 hPa 0,0 l/m 0,2 km/h (0 Bft) W-SW 247 0 min 0,0 UV-I -5,8 C -5,5 C 0,0 km/h (0 Bft)
29.11.2011 04:40 -4,5 C 9,9 C -3,7 C -4,9 C -5,7 C 0,0 C 90 % 89 % 0 % 1024,6 hPa 0,0 l/m 0,0 km/h (0 Bft) W-SW 247 0 min 0,0 UV-I -5,9 C -5,7 C 0,0 km/h (0 Bft)
29.11.2011 04:45 -4,5 C 9,9 C -3,7 C -4,9 C -5,8 C 0,0 C 90 % 89 % 0 % 1024,6 hPa 0,0 l/m 0,0 km/h (0 Bft) S 180 0 min 0,0 UV-I -5,9 C -5,8 C 0,0 km/h (0 Bft)
29.11.2011 04:50 -4,5 C 9,9 C -4,0 C -4,9 C -5,7 C 0,0 C 90 % 88 % 0 % 1024,6 hPa 0,0 l/m 0,0 km/h (0 Bft) S 180 0 min 0,0 UV-I -5,9 C -5,7 C 0,0 km/h (0 Bft)
29.11.2011 04:55 -4,6 C 9,9 C -3,9 C -4,9 C -5,6 C 0,0 C 90 % 89 % 0 % 1024,6 hPa 0,0 l/m 0,0 km/h (0 Bft) W-SW 247 0 min 0,0 UV-I -6,0 C -5,6 C 0,0 km/h (0 Bft)
29.11.2011 05:00 -4,5 C 9,9 C -3,7 C -4,8 C -5,5 C 0,0 C 90 % 89 % 0 % 1025,2 hPa 0,0 l/m 0,0 km/h (0 Bft) W-SW 247 0 min 0,0 UV-I -5,9 C -5,5 C 0,0 km/h (0 Bft)
29.11.2011 05:12 -4,6 C 9,9 C -3,7 C -5,0 C -5,8 C 0,0 C 90 % 89 % 0 % 1025,2 hPa 0,0 l/m 0,0 km/h (0 Bft) N 0 0 min 0,0 UV-I -6,0 C -5,8 C 0,0 km/h (0 Bft)
29.11.2011 05:20 -4,7 C 9,8 C -3,9 C -5,1 C -5,9 C 0,0 C 90 % 89 % 0 % 1025,2 hPa 0,0 l/m 0,0 km/h (0 Bft) W-SW 247 0 min 0,0 UV-I -6,1 C -5,9 C 0,0 km/h (0 Bft)
29.11.2011 05:25 -4,8 C 9,8 C -4,0 C -5,2 C -6,1 C 0,0 C 90 % 89 % 0 % 1025,2 hPa 0,0 l/m 0,0 km/h (0 Bft) S-SW 202 0 min 0,0 UV-I -6,2 C -6,1 C 0,0 km/h (0 Bft)
29.11.2011 05:30 -4,8 C 9,8 C -4,0 C -5,2 C -6,1 C 0,0 C 90 % 89 % 0 % 1025,2 hPa 0,0 l/m 0,0 km/h (0 Bft) S-SW 202 0 min 0,0 UV-I -6,2 C -6,1 C 0,0 km/h (0 Bft)
29.11.2011 05:35 -4,9 C 9,8 C -4,0 C -5,3 C -6,2 C 0,0 C 90 % 89 % 0 % 1025,2 hPa 0,0 l/m 0,0 km/h (0 Bft) S-SW 202 0 min 0,0 UV-I -6,3 C -6,2 C 0,0 km/h (0 Bft)
29.11.2011 05:40 -4,9 C 9,8 C -4,0 C -5,3 C -6,2 C 0,0 C 90 % 89 % 0 % 1024,2 hPa 0,0 l/m 0,0 km/h (0 Bft) S-SW 202 0 min 0,0 UV-I -6,3 C -6,2 C 0,0 km/h (0 Bft)
29.11.2011 05:45 -4,9 C 9,8 C -4,0 C -5,3 C -6,1 C 0,0 C 90 % 89 % 0 % 1024,2 hPa 0,0 l/m 0,0 km/h (0 Bft) S-SW 202 0 min 0,0 UV-I -6,3 C -6,1 C 0,0 km/h (0 Bft)
29.11.2011 05:50 -4,9 C 9,8 C -3,9 C -5,4 C -6,3 C 0,0 C 90 % 89 % 0 % 1024,2 hPa 0,0 l/m 0,0 km/h (0 Bft) W-SW 247 0 min 0,0 UV-I -6,3 C -6,3 C 0,0 km/h (0 Bft)
29.11.2011 05:55 -5,1 C 9,7 C -4,1 C -5,5 C -6,2 C 0,0 C 90 % 89 % 0 % 1024,2 hPa 0,0 l/m 0,0 km/h (0 Bft) SW 225 0 min 0,0 UV-I -6,5 C -6,2 C 0,0 km/h (0 Bft)
29.11.2011 06:00 -5,1 C 9,7 C -4,1 C -5,5 C -6,3 C 0,0 C 90 % 89 % 0 % 1024,3 hPa 0,0 l/m 0,0 km/h (0 Bft) SW 225 0 min 0,0 UV-I -6,5 C -6,3 C 0,0 km/h (0 Bft)
29.11.2011 06:15 -4,9 C 9,7 C -4,1 C -5,2 C -5,9 C 0,0 C 90 % 89 % 0 % 1024,3 hPa 0,0 l/m 0,0 km/h (0 Bft) SW 225 0 min 0,0 UV-I -6,3 C -5,9 C 0,0 km/h (0 Bft)
29.11.2011 06:18 -4,9 C 9,7 C -4,1 C -5,2 C -5,9 C 0,0 C 90 % 89 % 0 % 1024,3 hPa 0,0 l/m 0,0 km/h (0 Bft) SW 225 0 min 0,0 UV-I -6,3 C -5,9 C 0,0 km/h (0 Bft)
29.11.2011 06:20 -4,9 C 9,7 C -4,1 C -5,2 C -5,9 C 0,0 C 90 % 89 % 0 % 1024,3 hPa 0,0 l/m 0,0 km/h (0 Bft) S 180 0 min 0,0 UV-I -6,3 C -5,9 C 0,0 km/h (0 Bft)
29.11.2011 06:25 -4,9 C 9,7 C -4,3 C -5,2 C -5,9 C 0,0 C 90 % 89 % 0 % 1024,3 hPa 0,0 l/m 0,0 km/h (0 Bft) S 180 0 min 0,0 UV-I -6,3 C -5,9 C 0,0 km/h (0 Bft)
29.11.2011 06:30 -5,1 C 9,7 C -4,1 C -5,4 C -6,0 C 0,0 C 90 % 89 % 0 % 1024,3 hPa 0,0 l/m 0,0 km/h (0 Bft) S-SW 202 0 min 0,0 UV-I -6,5 C -6,0 C 0,0 km/h (0 Bft)
29.11.2011 06:35 -5,1 C 9,7 C -4,3 C -5,4 C -6,1 C 0,0 C 90 % 89 % 0 % 1024,3 hPa 0,0 l/m 0,0 km/h (0 Bft) SW 225 0 min 0,0 UV-I -6,5 C -6,1 C 0,0 km/h (0 Bft)
29.11.2011 06:40 -5,1 C 9,7 C -4,3 C -5,5 C -6,2 C 0,0 C 90 % 89 % 0 % 1023,8 hPa 0,0 l/m 0,0 km/h (0 Bft) SW 225 0 min 0,0 UV-I -6,5 C -6,2 C 0,0 km/h (0 Bft)
29.11.2011 06:45 -5,2 C 9,6 C -4,3 C -5,6 C -6,3 C 0,0 C 90 % 89 % 0 % 1023,8 hPa 0,0 l/m 0,0 km/h (0 Bft) SW 225 0 min 0,0 UV-I -6,6 C -6,3 C 0,0 km/h (0 Bft)
29.11.2011 06:50 -5,3 C 9,6 C -4,3 C -5,6 C -6,3 C 0,0 C 90 % 89 % 0 % 1023,8 hPa 0,0 l/m 0,0 km/h (0 Bft) SW 225 0 min 0,0 UV-I -6,7 C -6,3 C 0,0 km/h (0 Bft)
29.11.2011 06:55 -5,3 C 9,6 C -4,5 C -5,6 C -6,3 C 0,0 C 90 % 88 % 0 % 1023,8 hPa 0,0 l/m 0,0 km/h (0 Bft) SW 225 0 min 0,0 UV-I -6,7 C -6,3 C 0,0 km/h (0 Bft)
29.11.2011 07:00 -5,3 C 9,6 C -4,4 C -5,6 C -6,3 C 0,0 C 90 % 89 % 0 % 1024,2 hPa 0,0 l/m 0,0 km/h (0 Bft) SW 225 0 min 0,0 UV-I -6,7 C -6,3 C 0,0 km/h (0 Bft)
29.11.2011 07:04 -5,3 C 9,6 C -4,4 C -5,6 C -6,3 C 0,0 C 90 % 89 % 0 % 1024,2 hPa 0,0 l/m 0,0 km/h (0 Bft) SW 225 0 min 0,0 UV-I -6,7 C -6,3 C 0,0 km/h (0 Bft)
29.11.2011 07:09 -5,3 C 9,6 C -4,5 C -5,6 C -6,3 C 0,0 C 90 % 89 % 0 % 1024,2 hPa 0,0 l/m 0,2 km/h (0 Bft) W-SW 247 0 min 0,0 UV-I -6,7 C -6,3 C 0,0 km/h (0 Bft)
29.11.2011 07:14 -5,3 C 9,6 C -4,6 C -5,6 C -6,2 C 0,0 C 90 % 88 % 0 % 1024,2 hPa 0,0 l/m 0,5 km/h (0 Bft) SW 225 0 min 0,0 UV-I -6,7 C -6,2 C 0,0 km/h (0 Bft)
29.11.2011 07:18 -5,3 C 9,6 C -4,6 C -5,6 C -6,2 C 0,0 C 90 % 88 % 0 % 1024,2 hPa 0,0 l/m 0,5 km/h (0 Bft) SW 225 0 min 0,0 UV-I -6,7 C -6,2 C 0,0 km/h (0 Bft)
29.11.2011 07:25 -5,3 C 9,6 C -4,6 C -5,6 C -6,2 C 0,0 C 90 % 89 % 0 % 1024,2 hPa 0,0 l/m 0,0 km/h (0 Bft) SO 135 0 min 0,0 UV-I -6,7 C -6,2 C 0,0 km/h (0 Bft)
29.11.2011 07:30 -5,1 C 9,6 C -4,6 C -5,4 C -6,1 C 0,0 C 90 % 89 % 0 % 1024,2 hPa 0,0 l/m 0,0 km/h (0 Bft) SO 135 0 min 0,0 UV-I -6,5 C -6,1 C 0,0 km/h (0 Bft)
29.11.2011 07:35 -5,3 C 9,5 C -4,5 C -5,6 C -6,3 C 0,0 C 90 % 89 % 0 % 1024,2 hPa 0,0 l/m 0,0 km/h (0 Bft) SO 135 0 min 0,0 UV-I -6,7 C -6,3 C 0,0 km/h (0 Bft)
29.11.2011 07:40 -5,3 C 9,5 C -4,5 C -5,7 C -6,5 C 0,0 C 90 % 89 % 0 % 1023,8 hPa 0,0 l/m 0,0 km/h (0 Bft) W-SW 247 0 min 0,0 UV-I -6,7 C -6,5 C 0,0 km/h (0 Bft)
29.11.2011 07:45 -5,4 C 9,5 C -4,5 C -5,8 C -6,6 C 0,0 C 90 % 89 % 0 % 1023,8 hPa 0,0 l/m 0,0 km/h (0 Bft) W-SW 247 0 min 0,0 UV-I -6,8 C -6,6 C 0,0 km/h (0 Bft)
29.11.2011 07:50 -5,3 C 9,5 C -4,5 C -5,8 C -6,8 C 0,0 C 90 % 89 % 0 % 1023,8 hPa 0,0 l/m 0,0 km/h (0 Bft) W-SW 247 0 min 0,0 UV-I -6,7 C -6,8 C 0,0 km/h (0 Bft)
29.11.2011 07:55 -5,5 C 9,5 C -4,5 C -6,0 C -6,9 C 0,0 C 89 % 89 % 0 % 1023,8 hPa 0,0 l/m 0,0 km/h (0 Bft) W-SW 247 0 min 0,0 UV-I -7,0 C -6,9 C 0,0 km/h (0 Bft)
29.11.2011 08:00 -5,6 C 9,5 C -4,5 C -6,0 C -6,9 C 0,0 C 89 % 89 % 0 % 1023,8 hPa 0,0 l/m 0,0 km/h (0 Bft) W-SW 247 0 min 0,0 UV-I -7,1 C -6,9 C 0,0 km/h (0 Bft)
29.11.2011 08:04 -5,5 C 9,5 C -4,7 C -6,0 C -6,9 C 0,0 C 89 % 89 % 0 % 1023,8 hPa 0,0 l/m 0,0 km/h (0 Bft) W-SW 247 0 min 0,0 UV-I -7,0 C -6,9 C 0,0 km/h (0 Bft)
29.11.2011 08:09 -5,5 C 9,5 C -4,5 C -5,9 C -6,8 C 0,0 C 90 % 89 % 0 % 1023,8 hPa 0,0 l/m 0,0 km/h (0 Bft) W-SW 247 0 min 0,0 UV-I -6,9 C -6,8 C 0,0 km/h (0 Bft)
29.11.2011 08:14 -5,6 C 9,5 C -4,6 C -5,9 C -6,6 C 0,0 C 90 % 89 % 0 % 1023,8 hPa 0,0 l/m 0,0 km/h (0 Bft) W-SW 247 0 min 0,0 UV-I -7,0 C -6,6 C 0,0 km/h (0 Bft)
29.11.2011 08:18 -5,6 C 9,5 C -4,6 C -5,9 C -6,6 C 0,0 C 90 % 89 % 0 % 1023,8 hPa 0,0 l/m 0,0 km/h (0 Bft) W-SW 247 0 min 0,0 UV-I -7,0 C -6,6 C 0,0 km/h (0 Bft)
29.11.2011 08:25 -5,5 C 9,4 C -4,5 C -5,8 C -6,3 C 0,0 C 90 % 89 % 0 % 1024,4 hPa 0,0 l/m 0,0 km/h (0 Bft) SW 225 0 min 0,0 UV-I -6,9 C -6,3 C 0,0 km/h (0 Bft)
29.11.2011 08:30 -5,5 C 9,4 C -4,3 C -5,7 C -6,2 C 0,0 C 90 % 89 % 0 % 1024,4 hPa 0,0 l/m 0,0 km/h (0 Bft) SW 225 0 min 0,0 UV-I -6,9 C -6,2 C 0,0 km/h (0 Bft)
29.11.2011 08:35 -5,6 C 9,4 C -4,3 C -5,8 C -6,2 C 0,0 C 90 % 89 % 0 % 1024,4 hPa 0,0 l/m 0,0 km/h (0 Bft) SW 225 0 min 0,0 UV-I -7,0 C -6,2 C 0,0 km/h (0 Bft)
29.11.2011 08:40 -5,6 C 9,4 C -4,3 C -5,8 C -6,1 C 0,0 C 90 % 89 % 0 % 1024,5 hPa 0,0 l/m 0,0 km/h (0 Bft) SW 225 0 min 0,0 UV-I -7,0 C -6,1 C 0,0 km/h (0 Bft)
29.11.2011 08:45 -5,3 C 9,4 C -4,1 C -5,5 C -5,9 C 0,0 C 90 % 89 % 0 % 1024,5 hPa 0,0 l/m 0,0 km/h (0 Bft) SW 225 0 min 0,0 UV-I -6,7 C -5,9 C 0,0 km/h (0 Bft)
29.11.2011 08:50 -5,2 C 9,4 C -4,1 C -5,4 C -5,8 C 0,0 C 90 % 89 % 0 % 1024,5 hPa 0,0 l/m 0,0 km/h (0 Bft) W-SW 247 0 min 0,0 UV-I -6,6 C -5,8 C 0,0 km/h (0 Bft)
29.11.2011 08:55 -5,1 C 9,4 C -4,2 C -5,3 C -5,6 C 0,0 C 91 % 89 % 0 % 1024,5 hPa 0,0 l/m 0,0 km/h (0 Bft) W-SW 247 0 min 0,0 UV-I -6,3 C -5,6 C 0,0 km/h (0 Bft)
29.11.2011 09:00 -5,1 C 9,4 C -4,1 C -5,2 C -5,4 C 0,0 C 91 % 89 % 0 % 1024,0 hPa 0,0 l/m 0,0 km/h (0 Bft) W-SW 247 0 min 0,0 UV-I -6,3 C -5,4 C 0,0 km/h (0 Bft)
29.11.2011 09:04 -4,9 C 9,4 C -3,9 C -5,0 C -5,2 C 0,0 C 91 % 89 % 0 % 1024,0 hPa 0,0 l/m 0,0 km/h (0 Bft) W-SW 247 0 min 0,0 UV-I -6,1 C -5,2 C 0,0 km/h (0 Bft)
29.11.2011 09:09 -4,9 C 9,4 C -4,0 C -4,9 C -5,0 C 0,0 C 91 % 89 % 0 % 1024,0 hPa 0,0 l/m 0,0 km/h (0 Bft) W-SW 247 0 min 0,0 UV-I -6,1 C -5,0 C 0,0 km/h (0 Bft)
29.11.2011 09:14 -4,7 C 9,4 C -3,7 C -4,8 C -4,9 C 0,0 C 91 % 90 % 0 % 1024,0 hPa 0,0 l/m 0,0 km/h (0 Bft) W-SW 247 0 min 0,0 UV-I -5,9 C -4,9 C 0,0 km/h (0 Bft)
29.11.2011 09:18 -4,7 C 9,4 C -3,7 C -4,8 C -4,9 C 0,0 C 91 % 90 % 0 % 1024,0 hPa 0,0 l/m 0,0 km/h (0 Bft) W-SW 247 0 min 0,0 UV-I -5,9 C -4,9 C 0,0 km/h (0 Bft)
29.11.2011 09:25 -4,5 C 9,3 C -3,7 C -4,5 C -4,6 C 0,0 C 91 % 90 % 0 % 1024,1 hPa 0,0 l/m 0,0 km/h (0 Bft) SW 225 0 min 0,0 UV-I -5,7 C -4,6 C 0,0 km/h (0 Bft)
29.11.2011 09:30 -4,5 C 9,2 C -3,7 C -4,5 C -4,6 C 0,0 C 91 % 90 % 0 % 1024,1 hPa 0,0 l/m 0,0 km/h (0 Bft) W-SW 247 0 min 0,0 UV-I -5,7 C -4,6 C 0,0 km/h (0 Bft)
29.11.2011 09:35 -4,5 C 9,2 C -3,5 C -4,5 C -4,5 C 0,0 C 91 % 90 % 0 % 1024,1 hPa 0,0 l/m 0,0 km/h (0 Bft) W-SW 247 0 min 0,0 UV-I -5,7 C -4,5 C 0,0 km/h (0 Bft)
29.11.2011 09:40 -4,3 C 9,2 C -3,3 C -4,2 C -4,2 C 0,1 C 91 % 90 % 3 % 1024,1 hPa 0,0 l/m 0,0 km/h (0 Bft) W-SW 247 0 min 0,0 UV-I -5,5 C -4,2 C 0,0 km/h (0 Bft)
29.11.2011 09:45 -4,1 C 9,2 C -3,3 C -3,9 C -3,9 C 0,2 C 91 % 90 % 5 % 1024,1 hPa 0,0 l/m 0,0 km/h (0 Bft) SW 225 0 min 0,0 UV-I -5,3 C -3,9 C 0,0 km/h (0 Bft)
29.11.2011 09:50 -3,9 C 9,2 C -3,2 C -3,7 C -3,7 C 0,2 C 91 % 90 % 5 % 1024,1 hPa 0,0 l/m 0,0 km/h (0 Bft) W-SW 247 0 min 0,0 UV-I -5,1 C -3,7 C 0,0 km/h (0 Bft)
29.11.2011 09:55 -3,7 C 9,2 C -2,9 C -3,0 C -3,0 C 0,7 C 91 % 90 % 18 % 1024,1 hPa 0,0 l/m 0,0 km/h (0 Bft) W-SW 247 0 min 0,0 UV-I -4,9 C -3,0 C 0,0 km/h (0 Bft)
29.11.2011 10:00 -3,5 C 9,3 C -2,8 C -2,8 C -2,8 C 0,7 C 92 % 90 % 18 % 1024,1 hPa 0,0 l/m 0,0 km/h (0 Bft) W-SW 247 0 min 0,0 UV-I -4,6 C -2,8 C 0,0 km/h (0 Bft)
29.11.2011 10:04 -3,3 C 9,2 C -2,5 C -2,8 C -2,8 C 0,5 C 92 % 90 % 13 % 1024,1 hPa 0,0 l/m 0,0 km/h (0 Bft) W-SW 247 0 min 0,0 UV-I -4,4 C -2,8 C 0,0 km/h (0 Bft)
29.11.2011 10:09 -3,2 C 9,2 C -2,3 C -2,8 C -2,8 C 0,4 C 92 % 91 % 11 % 1024,1 hPa 0,0 l/m 0,0 km/h (0 Bft) W-SW 247 0 min 0,0 UV-I -4,3 C -2,8 C 0,0 km/h (0 Bft)
29.11.2011 10:14 -3,0 C 9,3 C -2,1 C -2,4 C -2,4 C 0,6 C 92 % 91 % 16 % 1024,1 hPa 0,0 l/m 0,0 km/h (0 Bft) W-SW 247 0 min 0,0 UV-I -4,1 C -2,4 C 0,0 km/h (0 Bft)
29.11.2011 10:18 -3,0 C 9,3 C -2,1 C -2,4 C -2,4 C 0,6 C 92 % 91 % 16 % 1024,1 hPa 0,0 l/m 0,0 km/h (0 Bft) W-SW 247 0 min 0,0 UV-I -4,1 C -2,4 C 0,0 km/h (0 Bft)
29.11.2011 10:25 -2,7 C 9,2 C -1,9 C -1,2 C -1,2 C 1,5 C 92 % 91 % 39 % 1023,4 hPa 0,0 l/m 0,0 km/h (0 Bft) W-SW 247 0 min 0,0 UV-I -3,8 C -1,2 C 1,6 km/h (1 Bft)
29.11.2011 10:30 -2,5 C 9,2 C -1,7 C -0,7 C -0,7 C 1,8 C 92 % 91 % 47 % 1023,4 hPa 0,0 l/m 0,2 km/h (0 Bft) SW 225 0 min 0,0 UV-I -3,6 C -0,7 C 0,0 km/h (0 Bft)
29.11.2011 10:35 -2,1 C 9,2 C -1,3 C -0,5 C -0,5 C 1,6 C 92 % 91 % 42 % 1023,4 hPa 0,0 l/m 0,2 km/h (0 Bft) SW 225 0 min 0,0 UV-I -3,2 C -0,5 C 0,0 km/h (0 Bft)
29.11.2011 10:40 -1,9 C 9,2 C -1,3 C -0,5 C -0,5 C 1,4 C 92 % 91 % 37 % 1023,4 hPa 0,0 l/m 0,0 km/h (0 Bft) SW 225 0 min 0,0 UV-I -3,0 C -0,5 C 0,0 km/h (0 Bft)
29.11.2011 10:45 -1,7 C 9,2 C -1,1 C -0,6 C -0,6 C 1,1 C 92 % 91 % 29 % 1023,4 hPa 0,0 l/m 0,0 km/h (0 Bft) SW 225 0 min 0,0 UV-I -2,8 C -0,6 C 0,0 km/h (0 Bft)
29.11.2011 10:50 -1,7 C 9,2 C -0,9 C -0,2 C -0,2 C 1,5 C 92 % 91 % 39 % 1023,4 hPa 0,0 l/m 0,0 km/h (0 Bft) SW 225 0 min 0,0 UV-I -2,8 C -0,2 C 0,0 km/h (0 Bft)
29.11.2011 10:55 -1,3 C 9,2 C -0,8 C 1,0 C 1,0 C 2,3 C 92 % 91 % 61 % 1023,4 hPa 0,0 l/m 0,0 km/h (0 Bft) SW 225 0 min 0,0 UV-I -2,4 C 1,0 C 0,0 km/h (0 Bft)
29.11.2011 11:00 -1,1 C 9,3 C -0,5 C 1,5 C 1,5 C 2,6 C 92 % 91 % 68 % 1023,1 hPa 0,0 l/m 0,2 km/h (0 Bft) SW 225 0 min 0,0 UV-I -2,2 C 1,5 C 0,0 km/h (0 Bft)
29.11.2011 11:04 -0,7 C 9,2 C -0,1 C 2,9 C 2,9 C 3,6 C 92 % 91 % 95 % 1023,1 hPa 0,0 l/m 0,2 km/h (0 Bft) O-SO 112 4 min 0,0 UV-I -1,8 C 2,9 C 0,0 km/h (0 Bft)
29.11.2011 11:09 -0,7 C 9,2 C -0,1 C 3,4 C 3,4 C 4,1 C 92 % 91 % 100 % 1023,1 hPa 0,0 l/m 0,0 km/h (0 Bft) O-SO 112 5 min 0,0 UV-I -1,8 C 3,4 C 0,0 km/h (0 Bft)
29.11.2011 11:14 -0,4 C 9,3 C 0,3 C 2,8 C 2,8 C 3,2 C 92 % 91 % 84 % 1023,1 hPa 0,0 l/m 0,6 km/h (0 Bft) W-SW 247 0 min 0,0 UV-I -1,5 C 2,8 C 2,1 km/h (1 Bft)
29.11.2011 11:18 -0,4 C 9,3 C 0,3 C 2,8 C 2,8 C 3,2 C 92 % 91 % 84 % 1023,1 hPa 0,0 l/m 0,6 km/h (0 Bft) W-SW 247 0 min 0,0 UV-I -1,5 C 2,8 C 2,1 km/h (1 Bft)
29.11.2011 11:25 0,3 C 9,3 C 0,8 C 3,9 C 3,9 C 3,6 C 93 % 92 % 95 % 1023,4 hPa 0,0 l/m 1,1 km/h (1 Bft) SW 225 7 min 0,0 UV-I -0,7 C 3,9 C 2,3 km/h (1 Bft)
29.11.2011 11:30 0,4 C 9,1 C 0,8 C 4,3 C 4,3 C 3,9 C 93 % 91 % 100 % 1023,4 hPa 0,0 l/m 0,3 km/h (0 Bft) W-SW 247 5 min 0,0 UV-I -0,6 C 4,3 C 0,0 km/h (0 Bft)
29.11.2011 11:35 0,7 C 9,1 C 1,1 C 4,8 C 4,8 C 4,1 C 93 % 92 % 100 % 1023,4 hPa 0,0 l/m 0,3 km/h (0 Bft) S-SW 202 5 min 0,0 UV-I -0,3 C 4,8 C 0,0 km/h (0 Bft)
29.11.2011 11:40 0,8 C 9,1 C 1,1 C 4,8 C 4,8 C 4,0 C 93 % 91 % 100 % 1022,8 hPa 0,0 l/m 0,3 km/h (0 Bft) W-SW 247 5 min 0,0 UV-I -0,2 C 4,8 C 2,3 km/h (1 Bft)
29.11.2011 11:45 1,1 C 9,0 C 1,5 C 4,6 C 4,6 C 3,5 C 93 % 91 % 92 % 1022,8 hPa 0,0 l/m 0,2 km/h (0 Bft) S 180 5 min 0,0 UV-I 0,1 C 4,6 C 0,0 km/h (0 Bft)
29.11.2011 11:50 1,3 C 9,0 C 1,6 C 4,5 C 4,5 C 3,2 C 93 % 91 % 84 % 1022,8 hPa 0,0 l/m 0,2 km/h (0 Bft) W-SW 247 0 min 0,0 UV-I 0,3 C 4,5 C 0,0 km/h (0 Bft)
29.11.2011 11:55 1,5 C 8,9 C 1,9 C 4,8 C 4,8 C 3,3 C 93 % 91 % 87 % 1022,8 hPa 0,0 l/m 0,5 km/h (0 Bft) W-SW 247 5 min 0,0 UV-I 0,5 C 4,8 C 0,0 km/h (0 Bft)
29.11.2011 12:00 1,6 C 8,8 C 2,0 C 4,9 C 4,9 C 3,3 C 93 % 91 % 87 % 1023,1 hPa 0,0 l/m 0,5 km/h (0 Bft) SW 225 5 min 0,0 UV-I 0,6 C 4,9 C 3,4 km/h (1 Bft)
29.11.2011 12:04 1,9 C 8,8 C 2,3 C 5,7 C 5,7 C 3,8 C 92 % 91 % 100 % 1023,1 hPa 0,0 l/m 0,2 km/h (0 Bft) S 180 4 min 0,0 UV-I 0,7 C 5,7 C 0,0 km/h (0 Bft)
29.11.2011 12:09 2,0 C 8,7 C 2,4 C 6,2 C 6,2 C 4,2 C 92 % 91 % 100 % 1023,1 hPa 0,0 l/m 0,2 km/h (0 Bft) SW 225 5 min 0,0 UV-I 0,8 C 6,2 C 0,0 km/h (0 Bft)
29.11.2011 12:14 2,3 C 8,7 C 2,7 C 6,5 C 6,5 C 4,2 C 93 % 90 % 100 % 1023,1 hPa 0,0 l/m 0,2 km/h (0 Bft) SW 225 5 min 0,0 UV-I 1,3 C 6,5 C 2,1 km/h (1 Bft)
29.11.2011 12:17 2,3 C 8,7 C 2,7 C 6,5 C 6,5 C 4,2 C 93 % 90 % 100 % 1023,1 hPa 0,0 l/m 0,2 km/h (0 Bft) SW 225 3 min 0,0 UV-I 1,3 C 6,5 C 2,1 km/h (1 Bft)
29.11.2011 12:20 2,5 C 8,7 C 3,1 C 6,5 C 6,5 C 4,0 C 93 % 90 % 100 % 1022,9 hPa 0,0 l/m 0,3 km/h (0 Bft) SW 225 3 min 0,0 UV-I 1,5 C 6,5 C 0,0 km/h (0 Bft)
29.11.2011 12:25 2,8 C 8,7 C 3,2 C 6,8 C 6,8 C 4,0 C 93 % 89 % 100 % 1022,9 hPa 0,0 l/m 0,6 km/h (0 Bft) W-SW 247 5 min 0,0 UV-I 1,8 C 6,8 C 3,1 km/h (1 Bft)
29.11.2011 12:30 3,1 C 8,7 C 3,5 C 6,9 C 6,9 C 3,8 C 93 % 89 % 100 % 1022,9 hPa 0,0 l/m 0,6 km/h (0 Bft) W-NW 292 5 min 0,0 UV-I 2,1 C 6,9 C 0,0 km/h (0 Bft)
29.11.2011 12:35 3,4 C 8,7 C 3,6 C 7,5 C 7,5 C 4,1 C 92 % 88 % 100 % 1022,9 hPa 0,0 l/m 0,5 km/h (0 Bft) NW 315 5 min 0,0 UV-I 2,2 C 7,5 C 0,0 km/h (0 Bft)
29.11.2011 12:40 3,5 C 8,7 C 3,8 C 7,9 C 7,9 C 4,4 C 92 % 88 % 100 % 1022,3 hPa 0,0 l/m 0,0 km/h (0 Bft) NW 315 5 min 0,0 UV-I 2,3 C 7,9 C 0,0 km/h (0 Bft)
29.11.2011 12:45 3,7 C 8,7 C 3,9 C 7,9 C 7,9 C 4,2 C 92 % 86 % 100 % 1022,3 hPa 0,0 l/m 0,2 km/h (0 Bft) W-NW 292 5 min 0,0 UV-I 2,5 C 7,9 C 0,0 km/h (0 Bft)
29.11.2011 12:50 3,9 C 8,6 C 4,0 C 7,6 C 7,6 C 3,7 C 91 % 86 % 97 % 1022,3 hPa 0,0 l/m 0,5 km/h (0 Bft) SW 225 5 min 0,0 UV-I 2,6 C 7,6 C 0,0 km/h (0 Bft)
29.11.2011 12:55 4,3 C 8,6 C 4,3 C 7,6 C 7,6 C 3,3 C 90 % 85 % 87 % 1022,3 hPa 0,0 l/m 0,5 km/h (0 Bft) NW 315 5 min 0,0 UV-I 2,8 C 7,6 C 2,1 km/h (1 Bft)
29.11.2011 13:00 4,4 C 8,6 C 4,2 C 7,7 C 7,7 C 3,3 C 89 % 84 % 87 % 1022,0 hPa 0,0 l/m 0,3 km/h (0 Bft) W 270 5 min 0,0 UV-I 2,7 C 7,7 C 0,0 km/h (0 Bft)
29.11.2011 13:04 4,8 C 8,6 C 4,4 C 8,0 C 8,0 C 3,2 C 88 % 83 % 84 % 1022,0 hPa 0,0 l/m 0,2 km/h (0 Bft) NW 315 0 min 0,0 UV-I 3,0 C 8,0 C 0,0 km/h (0 Bft)
29.11.2011 13:09 5,1 C 8,6 C 4,5 C 8,9 C 8,9 C 3,8 C 86 % 83 % 100 % 1022,0 hPa 0,0 l/m 0,3 km/h (0 Bft) S 180 5 min 0,0 UV-I 3,0 C 8,9 C 2,1 km/h (1 Bft)
29.11.2011 13:14 5,2 C 8,6 C 4,8 C 9,7 C 9,7 C 4,5 C 84 % 81 % 100 % 1022,0 hPa 0,0 l/m 0,2 km/h (0 Bft) S-SW 202 5 min 0,0 UV-I 2,7 C 9,7 C 1,6 km/h (1 Bft)
29.11.2011 13:18 5,2 C 8,6 C 4,8 C 9,7 C 9,7 C 4,5 C 84 % 81 % 100 % 1022,0 hPa 0,0 l/m 0,2 km/h (0 Bft) S-SW 202 4 min 0,0 UV-I 2,7 C 9,7 C 1,6 km/h (1 Bft)
29.11.2011 13:25 6,1 C 8,6 C 5,2 C 10,3 C 10,3 C 4,2 C 79 % 79 % 100 % 1022,0 hPa 0,0 l/m 1,6 km/h (1 Bft) S 180 7 min 0,0 UV-I 2,7 C 10,3 C 3,9 km/h (1 Bft)
29.11.2011 13:30 6,4 C 8,6 C 5,3 C 10,3 C 10,3 C 3,9 C 79 % 79 % 100 % 1022,0 hPa 0,0 l/m 1,9 km/h (1 Bft) W 270 5 min 0,0 UV-I 3,0 C 10,3 C 0,0 km/h (0 Bft)
29.11.2011 13:35 6,7 C 8,7 C 5,5 C 11,0 C 11,0 C 4,3 C 76 % 79 % 100 % 1022,0 hPa 0,0 l/m 1,0 km/h (0 Bft) W 270 5 min 0,0 UV-I 2,8 C 11,0 C 2,1 km/h (1 Bft)
29.11.2011 13:40 6,9 C 8,7 C 5,6 C 11,0 C 11,0 C 4,1 C 75 % 78 % 100 % 1021,6 hPa 0,0 l/m 1,0 km/h (0 Bft) S 180 5 min 0,0 UV-I 2,8 C 11,0 C 3,1 km/h (1 Bft)
29.11.2011 13:45 7,1 C 8,7 C 5,7 C 10,9 C 10,9 C 3,8 C 75 % 78 % 100 % 1021,6 hPa 0,0 l/m 1,0 km/h (0 Bft) W-SW 247 5 min 0,0 UV-I 3,0 C 10,9 C 4,3 km/h (1 Bft)
29.11.2011 13:50 7,2 C 8,7 C 5,6 C 10,9 C 10,9 C 3,7 C 73 % 78 % 97 % 1021,6 hPa 0,0 l/m 0,8 km/h (0 Bft) S 180 5 min 0,0 UV-I 2,7 C 10,9 C 2,1 km/h (1 Bft)
29.11.2011 13:55 7,5 C 8,7 C 5,9 C 10,8 C 10,8 C 3,3 C 73 % 78 % 87 % 1021,6 hPa 0,0 l/m 0,5 km/h (0 Bft) W-SW 247 5 min 0,0 UV-I 3,0 C 10,8 C 1,6 km/h (1 Bft)
29.11.2011 14:00 7,7 C 8,7 C 5,9 C 10,9 C 10,9 C 3,2 C 69 % 77 % 84 % 1021,6 hPa 0,0 l/m 1,0 km/h (0 Bft) W-SW 247 0 min 0,0 UV-I 2,4 C 10,9 C 3,9 km/h (1 Bft)
29.11.2011 14:05 8,0 C 8,7 C 6,5 C 11,2 C 11,2 C 3,2 C 70 % 76 % 84 % 1021,6 hPa 0,0 l/m 1,9 km/h (1 Bft) S 180 0 min 0,0 UV-I 2,9 C 11,2 C 3,9 km/h (1 Bft)
29.11.2011 14:10 8,1 C 8,7 C 6,7 C 11,2 C 11,2 C 3,1 C 69 % 75 % 82 % 1021,6 hPa 0,0 l/m 1,8 km/h (1 Bft) SW 225 0 min 0,0 UV-I 2,8 C 11,2 C 1,9 km/h (1 Bft)
29.11.2011 14:15 8,2 C 8,7 C 6,4 C 11,0 C 11,0 C 2,8 C 69 % 75 % 74 % 1021,6 hPa 0,0 l/m 1,0 km/h (0 Bft) W-SW 247 0 min 0,0 UV-I 2,9 C 11,0 C 0,0 km/h (0 Bft)
29.11.2011 14:20 8,4 C 8,7 C 6,3 C 11,1 C 11,1 C 2,7 C 67 % 75 % 71 % 1021,8 hPa 0,0 l/m 0,6 km/h (0 Bft) S 180 0 min 0,0 UV-I 2,6 C 11,1 C 0,0 km/h (0 Bft)
29.11.2011 14:25 8,5 C 8,7 C 6,1 C 11,5 C 11,5 C 3,0 C 67 % 75 % 79 % 1021,8 hPa 0,0 l/m 0,5 km/h (0 Bft) S-SW 202 0 min 0,0 UV-I 2,7 C 11,5 C 0,0 km/h (0 Bft)
29.11.2011 14:30 8,6 C 8,8 C 6,3 C 11,5 C 11,5 C 2,9 C 67 % 75 % 76 % 1021,8 hPa 0,0 l/m 0,8 km/h (0 Bft) S 180 0 min 0,0 UV-I 2,8 C 11,5 C 3,5 km/h (1 Bft)
29.11.2011 14:35 8,4 C 8,8 C 6,3 C 11,2 C 11,2 C 2,8 C 66 % 74 % 74 % 1021,8 hPa 0,0 l/m 1,1 km/h (1 Bft) W-SW 247 0 min 0,0 UV-I 2,4 C 11,2 C 0,0 km/h (0 Bft)
29.11.2011 14:40 8,2 C 8,8 C 6,2 C 11,1 C 11,1 C 2,9 C 66 % 75 % 76 % 1021,6 hPa 0,0 l/m 1,1 km/h (1 Bft) SW 225 0 min 0,0 UV-I 2,2 C 11,1 C 3,1 km/h (1 Bft)
29.11.2011 14:45 8,0 C 8,8 C 6,1 C 11,2 C 11,2 C 3,2 C 66 % 75 % 84 % 1021,6 hPa 0,0 l/m 1,8 km/h (1 Bft) SW 225 0 min 0,0 UV-I 2,0 C 11,2 C 3,5 km/h (1 Bft)
29.11.2011 14:50 8,1 C 8,8 C 6,1 C 11,2 C 11,2 C 3,1 C 67 % 75 % 82 % 1021,6 hPa 0,0 l/m 2,6 km/h (1 Bft) SW 225 0 min 0,0 UV-I 2,3 C 11,2 C 5,1 km/h (1 Bft)
29.11.2011 14:55 7,9 C 8,8 C 6,1 C 10,9 C 10,9 C 3,0 C 67 % 76 % 79 % 1021,6 hPa 0,0 l/m 2,6 km/h (1 Bft) SW 225 0 min 0,0 UV-I 2,2 C 10,9 C 3,5 km/h (1 Bft)
29.11.2011 15:00 7,9 C 8,8 C 6,3 C 10,2 C 10,2 C 2,3 C 67 % 76 % 61 % 1021,1 hPa 0,0 l/m 3,4 km/h (1 Bft) W-SW 247 0 min 0,0 UV-I 2,2 C 10,2 C 5,8 km/h (2 Bft)
29.11.2011 15:04 7,7 C 8,9 C 6,4 C 8,1 C 8,1 C 0,4 C 67 % 75 % 11 % 1021,1 hPa 0,0 l/m 5,6 km/h (1 Bft) W-SW 247 0 min 0,0 UV-I 2,0 C 7,4 C 10,1 km/h (2 Bft)
29.11.2011 15:09 7,6 C 8,9 C 6,4 C 7,5 C 7,2 C 0,0 C 67 % 75 % 0 % 1021,1 hPa 0,0 l/m 6,1 km/h (2 Bft) W-SW 247 0 min 0,0 UV-I 1,9 C 6,2 C 6,0 km/h (2 Bft)
29.11.2011 15:14 7,5 C 9,0 C 6,4 C 7,1 C 6,3 C 0,0 C 68 % 75 % 0 % 1021,1 hPa 0,0 l/m 6,6 km/h (2 Bft) W-SW 247 0 min 0,0 UV-I 2,0 C 5,0 C 14,3 km/h (3 Bft)
29.11.2011 15:18 7,5 C 9,0 C 6,4 C 7,1 C 6,3 C 0,0 C 68 % 75 % 0 % 1021,1 hPa 0,0 l/m 6,6 km/h (2 Bft) W-SW 247 0 min 0,0 UV-I 2,0 C 5,0 C 14,3 km/h (3 Bft)
29.11.2011 15:25 7,2 C 9,0 C 6,3 C 6,7 C 5,7 C 0,0 C 68 % 75 % 0 % 1021,4 hPa 0,0 l/m 6,8 km/h (2 Bft) W-SW 247 0 min 0,0 UV-I 1,7 C 4,3 C 7,7 km/h (2 Bft)
29.11.2011 15:30 7,1 C 9,0 C 6,2 C 6,7 C 6,0 C 0,0 C 69 % 75 % 0 % 1021,4 hPa 0,0 l/m 5,1 km/h (1 Bft) NO 45 0 min 0,0 UV-I 1,8 C 5,2 C 3,9 km/h (1 Bft)
29.11.2011 15:35 6,9 C 9,0 C 6,1 C 6,6 C 5,9 C 0,0 C 69 % 74 % 0 % 1021,4 hPa 0,0 l/m 4,2 km/h (1 Bft) SW 225 0 min 0,0 UV-I 1,6 C 5,9 C 12,9 km/h (3 Bft)
29.11.2011 15:40 6,9 C 9,0 C 6,1 C 6,4 C 5,4 C 0,0 C 69 % 74 % 0 % 1021,4 hPa 0,0 l/m 5,1 km/h (1 Bft) W-SW 247 0 min 0,0 UV-I 1,6 C 4,5 C 7,4 km/h (2 Bft)
29.11.2011 15:45 6,6 C 9,0 C 5,8 C 6,2 C 5,3 C 0,0 C 70 % 75 % 0 % 1021,4 hPa 0,0 l/m 5,0 km/h (1 Bft) N-NO 22 0 min 0,0 UV-I 1,5 C 4,4 C 0,0 km/h (0 Bft)
29.11.2011 15:50 6,6 C 9,0 C 5,9 C 6,4 C 5,9 C 0,0 C 70 % 75 % 0 % 1021,4 hPa 0,0 l/m 3,1 km/h (1 Bft) S 180 0 min 0,0 UV-I 1,5 C 5,9 C 0,0 km/h (0 Bft)
29.11.2011 15:55 6,4 C 9,0 C 5,9 C 6,1 C 5,6 C 0,0 C 70 % 75 % 0 % 1021,4 hPa 0,0 l/m 2,3 km/h (1 Bft) S 180 0 min 0,0 UV-I 1,3 C 5,6 C 2,4 km/h (1 Bft)
29.11.2011 16:00 6,3 C 9,0 C 5,8 C 6,0 C 5,5 C 0,0 C 70 % 75 % 0 % 1021,7 hPa 0,0 l/m 2,1 km/h (1 Bft) SW 225 0 min 0,0 UV-I 1,2 C 5,5 C 3,7 km/h (1 Bft)
29.11.2011 16:04 6,1 C 9,1 C 5,6 C 5,8 C 5,2 C 0,0 C 71 % 75 % 0 % 1021,7 hPa 0,0 l/m 2,1 km/h (1 Bft) SO 135 0 min 0,0 UV-I 1,2 C 5,2 C 3,4 km/h (1 Bft)
29.11.2011 16:09 6,0 C 9,1 C 5,4 C 5,7 C 5,0 C 0,0 C 71 % 76 % 0 % 1021,7 hPa 0,0 l/m 2,7 km/h (1 Bft) SO 135 0 min 0,0 UV-I 1,1 C 5,0 C 6,9 km/h (2 Bft)
29.11.2011 16:14 5,9 C 9,1 C 5,3 C 5,5 C 4,6 C 0,0 C 72 % 76 % 0 % 1021,7 hPa 0,0 l/m 3,5 km/h (1 Bft) W 270 0 min 0,0 UV-I 1,2 C 4,6 C 2,4 km/h (1 Bft)
29.11.2011 16:18 5,9 C 9,1 C 5,3 C 5,5 C 4,6 C 0,0 C 72 % 76 % 0 % 1021,7 hPa 0,0 l/m 3,5 km/h (1 Bft) W 270 0 min 0,0 UV-I 1,2 C 4,6 C 2,4 km/h (1 Bft)
29.11.2011 16:25 5,5 C 9,1 C 5,1 C 5,0 C 3,9 C 0,0 C 72 % 76 % 0 % 1021,6 hPa 0,0 l/m 3,9 km/h (1 Bft) W-NW 292 0 min 0,0 UV-I 0,9 C 3,9 C 8,0 km/h (2 Bft)
29.11.2011 16:30 5,3 C 9,1 C 5,0 C 4,6 C 3,1 C 0,0 C 73 % 76 % 0 % 1021,6 hPa 0,0 l/m 5,8 km/h (2 Bft) W-SW 247 0 min 0,0 UV-I 0,9 C 1,6 C 10,0 km/h (2 Bft)
29.11.2011 16:35 5,2 C 9,1 C 4,7 C 4,4 C 2,7 C 0,0 C 73 % 77 % 0 % 1021,6 hPa 0,0 l/m 6,4 km/h (2 Bft) W-SW 247 0 min 0,0 UV-I 0,8 C 0,9 C 0,0 km/h (0 Bft)
29.11.2011 16:40 4,9 C 9,1 C 4,7 C 4,1 C 2,6 C 0,0 C 73 % 77 % 0 % 1021,2 hPa 0,0 l/m 5,8 km/h (2 Bft) O-SO 112 0 min 0,0 UV-I 0,5 C 1,0 C 2,9 km/h (1 Bft)
29.11.2011 16:45 4,8 C 9,1 C 4,4 C 4,4 C 3,5 C 0,0 C 74 % 78 % 0 % 1021,2 hPa 0,0 l/m 3,2 km/h (1 Bft) S-SO 157 0 min 0,0 UV-I 0,6 C 3,5 C 3,5 km/h (1 Bft)
29.11.2011 16:50 4,7 C 9,1 C 4,4 C 4,3 C 3,5 C 0,0 C 74 % 78 % 0 % 1021,2 hPa 0,0 l/m 2,4 km/h (1 Bft) S 180 0 min 0,0 UV-I 0,5 C 3,5 C 2,1 km/h (1 Bft)
29.11.2011 16:55 4,5 C 9,2 C 4,2 C 4,0 C 3,1 C 0,0 C 75 % 78 % 0 % 1021,2 hPa 0,0 l/m 1,8 km/h (1 Bft) O-SO 112 0 min 0,0 UV-I 0,5 C 3,1 C 3,4 km/h (1 Bft)
29.11.2011 17:00 4,3 C 9,3 C 4,0 C 3,9 C 3,0 C 0,0 C 75 % 79 % 0 % 1020,9 hPa 0,0 l/m 2,3 km/h (1 Bft) SW 225 0 min 0,0 UV-I 0,3 C 3,0 C 3,9 km/h (1 Bft)
29.11.2011 17:04 4,3 C 9,3 C 3,9 C 3,8 C 2,8 C 0,0 C 76 % 79 % 0 % 1020,9 hPa 0,0 l/m 1,9 km/h (1 Bft) N-NO 22 0 min 0,0 UV-I 0,5 C 2,8 C 2,4 km/h (1 Bft)
29.11.2011 17:09 4,1 C 9,3 C 3,9 C 3,6 C 2,7 C 0,0 C 76 % 80 % 0 % 1020,9 hPa 0,0 l/m 1,4 km/h (1 Bft) O-SO 112 0 min 0,0 UV-I 0,3 C 2,7 C 3,4 km/h (1 Bft)
29.11.2011 17:14 4,0 C 9,3 C 3,6 C 3,5 C 2,6 C 0,0 C 76 % 79 % 0 % 1020,9 hPa 0,0 l/m 1,8 km/h (1 Bft) SW 225 0 min 0,0 UV-I 0,2 C 2,6 C 6,9 km/h (2 Bft)
29.11.2011 17:19 4,0 C 9,3 C 3,6 C 3,5 C 2,6 C 0,0 C 76 % 79 % 0 % 1020,9 hPa 0,0 l/m 1,8 km/h (1 Bft) SW 225 0 min 0,0 UV-I 0,2 C 2,6 C 6,9 km/h (2 Bft)
29.11.2011 17:25 3,9 C 9,3 C 3,5 C 3,4 C 2,4 C 0,0 C 76 % 80 % 0 % 1021,3 hPa 0,0 l/m 1,4 km/h (1 Bft) W-SW 247 0 min 0,0 UV-I 0,1 C 2,4 C 0,0 km/h (0 Bft)
29.11.2011 17:30 3,7 C 9,3 C 3,3 C 3,2 C 2,2 C 0,0 C 77 % 80 % 0 % 1021,3 hPa 0,0 l/m 1,3 km/h (1 Bft) SW 225 0 min 0,0 UV-I 0,1 C 2,2 C 0,0 km/h (0 Bft)
29.11.2011 17:35 3,6 C 9,3 C 3,0 C 3,1 C 2,0 C 0,0 C 77 % 81 % 0 % 1021,3 hPa 0,0 l/m 1,3 km/h (1 Bft) S-SW 202 0 min 0,0 UV-I -0,0 C 2,0 C 2,4 km/h (1 Bft)
29.11.2011 17:40 3,4 C 9,3 C 2,9 C 2,9 C 1,9 C 0,0 C 77 % 81 % 0 % 1021,3 hPa 0,0 l/m 1,8 km/h (1 Bft) S-SW 202 0 min 0,0 UV-I -0,2 C 1,9 C 2,3 km/h (1 Bft)
29.11.2011 17:45 3,3 C 9,3 C 2,8 C 2,8 C 1,8 C 0,0 C 78 % 82 % 0 % 1021,3 hPa 0,0 l/m 1,9 km/h (1 Bft) S-SW 202 0 min 0,0 UV-I -0,2 C 1,8 C 5,0 km/h (1 Bft)
29.11.2011 17:50 3,2 C 9,3 C 2,8 C 2,7 C 1,8 C 0,0 C 78 % 82 % 0 % 1021,3 hPa 0,0 l/m 1,8 km/h (1 Bft) SO 135 0 min 0,0 UV-I -0,3 C 1,8 C 4,3 km/h (1 Bft)
29.11.2011 17:55 3,2 C 9,4 C 2,7 C 2,8 C 1,9 C 0,0 C 78 % 82 % 0 % 1021,3 hPa 0,0 l/m 2,6 km/h (1 Bft) S 180 0 min 0,0 UV-I -0,3 C 1,9 C 2,3 km/h (1 Bft)
29.11.2011 18:00 3,3 C 9,4 C 2,7 C 2,8 C 1,9 C 0,0 C 78 % 82 % 0 % 1021,0 hPa 0,0 l/m 2,3 km/h (1 Bft) O-SO 112 0 min 0,0 UV-I -0,2 C 1,9 C 0,0 km/h (0 Bft)
29.11.2011 18:12 2,9 C 9,4 C 2,3 C 2,4 C 1,4 C 0,0 C 79 % 82 % 0 % 1021,0 hPa 0,0 l/m 0,3 km/h (0 Bft) N 0 0 min 0,0 UV-I -0,4 C 1,4 C 0,0 km/h (0 Bft)
29.11.2011 18:20 2,7 C 9,5 C 2,0 C 2,2 C 1,1 C 0,0 C 79 % 82 % 0 % 1021,1 hPa 0,0 l/m 0,5 km/h (0 Bft) S 180 0 min 0,0 UV-I -0,6 C 1,1 C 2,3 km/h (1 Bft)
29.11.2011 18:25 2,4 C 9,5 C 1,8 C 1,9 C 0,8 C 0,0 C 79 % 82 % 0 % 1021,1 hPa 0,0 l/m 0,2 km/h (0 Bft) S-SO 157 0 min 0,0 UV-I -0,9 C 0,8 C 0,0 km/h (0 Bft)
29.11.2011 18:30 2,3 C 9,5 C 1,6 C 1,7 C 0,5 C 0,0 C 79 % 83 % 0 % 1021,1 hPa 0,0 l/m 0,0 km/h (0 Bft) S-SO 157 0 min 0,0 UV-I -1,0 C 0,5 C 0,0 km/h (0 Bft)
29.11.2011 18:35 1,9 C 9,7 C 1,3 C 1,3 C 0,2 C 0,0 C 79 % 83 % 0 % 1021,1 hPa 0,0 l/m 0,0 km/h (0 Bft) S-SO 157 0 min 0,0 UV-I -1,3 C 0,2 C 0,0 km/h (0 Bft)
29.11.2011 18:40 1,6 C 9,7 C 1,3 C 1,0 C -0,1 C 0,0 C 80 % 83 % 0 % 1021,1 hPa 0,0 l/m 0,0 km/h (0 Bft) S-SO 157 0 min 0,0 UV-I -1,5 C -0,1 C 0,0 km/h (0 Bft)
29.11.2011 18:45 1,4 C 9,7 C 1,1 C 0,8 C -0,4 C 0,0 C 81 % 83 % 0 % 1021,1 hPa 0,0 l/m 0,2 km/h (0 Bft) N-NW 337 0 min 0,0 UV-I -1,5 C -0,4 C 0,0 km/h (0 Bft)
29.11.2011 18:50 1,2 C 9,7 C 0,9 C 0,6 C -0,5 C 0,0 C 81 % 84 % 0 % 1021,1 hPa 0,0 l/m 0,2 km/h (0 Bft) N-NW 337 0 min 0,0 UV-I -1,7 C -0,5 C 0,0 km/h (0 Bft)
29.11.2011 18:55 1,1 C 9,7 C 0,8 C 0,5 C -0,8 C 0,0 C 81 % 84 % 0 % 1021,1 hPa 0,0 l/m 0,0 km/h (0 Bft) N 360 0 min 0,0 UV-I -1,8 C -0,8 C 0,0 km/h (0 Bft)
29.11.2011 19:00 0,9 C 9,7 C 0,5 C 0,3 C -1,0 C 0,0 C 81 % 84 % 0 % 1020,8 hPa 0,0 l/m 0,0 km/h (0 Bft) N 360 0 min 0,0 UV-I -2,0 C -1,0 C 0,0 km/h (0 Bft)
29.11.2011 19:04 0,5 C 9,8 C 0,3 C -0,1 C -1,3 C 0,0 C 82 % 84 % 0 % 1020,8 hPa 0,0 l/m 0,0 km/h (0 Bft) N-NW 337 0 min 0,0 UV-I -2,2 C -1,3 C 0,0 km/h (0 Bft)
29.11.2011 19:09 0,4 C 9,7 C 0,3 C -0,2 C -1,5 C 0,0 C 82 % 84 % 0 % 1020,8 hPa 0,0 l/m 0,0 km/h (0 Bft) N-NW 337 0 min 0,0 UV-I -2,3 C -1,5 C 0,0 km/h (0 Bft)
29.11.2011 19:14 0,1 C 9,8 C 0,1 C -0,5 C -1,6 C 0,0 C 82 % 85 % 0 % 1020,8 hPa 0,0 l/m 0,2 km/h (0 Bft) N-NW 337 0 min 0,0 UV-I -2,6 C -1,6 C 0,0 km/h (0 Bft)
29.11.2011 19:18 0,1 C 9,8 C 0,1 C -0,5 C -1,6 C 0,0 C 82 % 85 % 0 % 1020,8 hPa 0,0 l/m 0,2 km/h (0 Bft) N-NW 337 0 min 0,0 UV-I -2,6 C -1,6 C 0,0 km/h (0 Bft)
29.11.2011 19:25 -0,1 C 9,8 C -0,2 C -0,7 C -1,9 C 0,0 C 83 % 85 % 0 % 1021,1 hPa 0,0 l/m 0,0 km/h (0 Bft) N 360 0 min 0,0 UV-I -2,6 C -1,9 C 0,0 km/h (0 Bft)
29.11.2011 19:30 -0,3 C 9,8 C -0,1 C -0,8 C -1,9 C 0,0 C 83 % 85 % 0 % 1021,1 hPa 0,0 l/m 0,0 km/h (0 Bft) N 360 0 min 0,0 UV-I -2,8 C -1,9 C 0,0 km/h (0 Bft)
29.11.2011 19:35 -0,4 C 9,8 C -0,5 C -0,9 C -1,8 C 0,0 C 84 % 85 % 0 % 1021,1 hPa 0,0 l/m 0,0 km/h (0 Bft) O-NO 67 0 min 0,0 UV-I -2,8 C -1,8 C 0,0 km/h (0 Bft)
29.11.2011 19:40 -0,5 C 9,8 C -0,5 C -0,9 C -1,8 C 0,0 C 84 % 86 % 0 % 1021,4 hPa 0,0 l/m 0,2 km/h (0 Bft) NW 315 0 min 0,0 UV-I -2,9 C -1,8 C 2,3 km/h (1 Bft)
29.11.2011 19:45 -0,5 C 9,8 C -0,5 C -1,0 C -1,9 C 0,0 C 85 % 86 % 0 % 1021,4 hPa 0,0 l/m 0,2 km/h (0 Bft) N-NW 337 0 min 0,0 UV-I -2,7 C -1,9 C 0,0 km/h (0 Bft)
29.11.2011 19:50 -0,6 C 9,8 C -0,5 C -1,1 C -2,1 C 0,0 C 85 % 86 % 0 % 1021,4 hPa 0,0 l/m 0,2 km/h (0 Bft) N 360 0 min 0,0 UV-I -2,8 C -2,1 C 0,0 km/h (0 Bft)
29.11.2011 19:55 -0,7 C 9,8 C -0,5 C -1,2 C -2,2 C 0,0 C 85 % 86 % 0 % 1021,4 hPa 0,0 l/m 0,2 km/h (0 Bft) NW 315 0 min 0,0 UV-I -2,9 C -2,2 C 1,9 km/h (1 Bft)
29.11.2011 20:00 -0,8 C 9,8 C -0,7 C -1,3 C -2,2 C 0,0 C 85 % 86 % 0 % 1021,4 hPa 0,0 l/m 0,2 km/h (0 Bft) NW 315 0 min 0,0 UV-I -3,0 C -2,2 C 0,0 km/h (0 Bft)
29.11.2011 20:04 -0,9 C 9,9 C -0,7 C -1,4 C -2,4 C 0,0 C 85 % 87 % 0 % 1021,4 hPa 0,0 l/m 0,2 km/h (0 Bft) NW 315 0 min 0,0 UV-I -3,1 C -2,4 C 0,0 km/h (0 Bft)
29.11.2011 20:09 -1,1 C 9,9 C -0,7 C -1,6 C -2,5 C 0,0 C 86 % 87 % 0 % 1021,4 hPa 0,0 l/m 0,0 km/h (0 Bft) NW 315 0 min 0,0 UV-I -3,1 C -2,5 C 0,0 km/h (0 Bft)
29.11.2011 20:14 -1,1 C 9,9 C -0,9 C -1,6 C -2,5 C 0,0 C 86 % 87 % 0 % 1021,4 hPa 0,0 l/m 0,0 km/h (0 Bft) O-NO 67 0 min 0,0 UV-I -3,1 C -2,5 C 0,0 km/h (0 Bft)
29.11.2011 20:18 -1,1 C 9,9 C -0,9 C -1,6 C -2,5 C 0,0 C 86 % 87 % 0 % 1021,4 hPa 0,0 l/m 0,0 km/h (0 Bft) O-NO 67 0 min 0,0 UV-I -3,1 C -2,5 C 0,0 km/h (0 Bft)
29.11.2011 20:25 -1,3 C 9,9 C -0,9 C -1,7 C -2,4 C 0,0 C 86 % 87 % 0 % 1020,9 hPa 0,0 l/m 0,2 km/h (0 Bft) N-NW 337 0 min 0,0 UV-I -3,3 C -2,4 C 0,0 km/h (0 Bft)
29.11.2011 20:30 -1,3 C 9,9 C -1,1 C -1,6 C -2,3 C 0,0 C 86 % 87 % 0 % 1020,9 hPa 0,0 l/m 0,0 km/h (0 Bft) N-NW 337 0 min 0,0 UV-I -3,3 C -2,3 C 0,0 km/h (0 Bft)
29.11.2011 20:35 -1,3 C 9,9 C -0,9 C -1,6 C -2,2 C 0,0 C 87 % 88 % 0 % 1020,9 hPa 0,0 l/m 0,2 km/h (0 Bft) NW 315 0 min 0,0 UV-I -3,2 C -2,2 C 0,0 km/h (0 Bft)
29.11.2011 20:40 -1,3 C 9,9 C -0,9 C -1,6 C -2,1 C 0,0 C 87 % 88 % 0 % 1021,0 hPa 0,0 l/m 0,2 km/h (0 Bft) S-SW 202 0 min 0,0 UV-I -3,2 C -2,1 C 0,0 km/h (0 Bft)
29.11.2011 20:45 -0,9 C 9,9 C -0,7 C -1,1 C -1,6 C 0,0 C 88 % 88 % 0 % 1021,0 hPa 0,0 l/m 0,2 km/h (0 Bft) SW 225 0 min 0,0 UV-I -2,6 C -1,6 C 0,0 km/h (0 Bft)
29.11.2011 20:50 -0,9 C 9,8 C -0,7 C -1,1 C -1,5 C 0,0 C 88 % 88 % 0 % 1021,0 hPa 0,0 l/m 0,2 km/h (0 Bft) W-SW 247 0 min 0,0 UV-I -2,6 C -1,5 C 0,0 km/h (0 Bft)
29.11.2011 20:55 -0,9 C 9,8 C -0,5 C -1,1 C -1,6 C 0,0 C 88 % 88 % 0 % 1021,0 hPa 0,0 l/m 0,0 km/h (0 Bft) S-SW 202 0 min 0,0 UV-I -2,6 C -1,6 C 0,0 km/h (0 Bft)
29.11.2011 21:00 -0,9 C 9,8 C -0,5 C -1,1 C -1,4 C 0,0 C 88 % 88 % 0 % 1021,1 hPa 0,0 l/m 0,0 km/h (0 Bft) O-SO 112 0 min 0,0 UV-I -2,6 C -1,4 C 0,0 km/h (0 Bft)
29.11.2011 21:04 -0,6 C 9,8 C -0,5 C -0,7 C -0,8 C 0,0 C 89 % 88 % 0 % 1021,1 hPa 0,0 l/m 0,2 km/h (0 Bft) S 180 0 min 0,0 UV-I -2,2 C -0,8 C 0,0 km/h (0 Bft)
29.11.2011 21:09 -0,1 C 9,8 C -0,1 C -0,1 C -0,1 C 0,0 C 90 % 89 % 0 % 1021,1 hPa 0,0 l/m 0,2 km/h (0 Bft) O-SO 112 0 min 0,0 UV-I -1,5 C -0,1 C 0,0 km/h (0 Bft)
29.11.2011 21:14 0,4 C 9,7 C 0,2 C 0,7 C 0,7 C 0,3 C 90 % 90 % 0 % 1021,1 hPa 0,0 l/m 0,2 km/h (0 Bft) O-SO 112 0 min 0,0 UV-I -1,0 C 0,7 C 0,0 km/h (0 Bft)
29.11.2011 21:18 0,4 C 9,7 C 0,2 C 0,7 C 0,7 C 0,3 C 90 % 90 % 0 % 1021,1 hPa 0,0 l/m 0,2 km/h (0 Bft) O-SO 112 0 min 0,0 UV-I -1,0 C 0,7 C 0,0 km/h (0 Bft)
29.11.2011 21:25 1,3 C 9,6 C 0,7 C 1,3 C 1,3 C 0,0 C 90 % 90 % 0 % 1021,1 hPa 0,0 l/m 0,2 km/h (0 Bft) O 90 0 min 0,0 UV-I -0,2 C 1,3 C 0,0 km/h (0 Bft)
29.11.2011 21:30 1,7 C 9,5 C 1,1 C 1,6 C 1,5 C 0,0 C 90 % 90 % 0 % 1021,1 hPa 0,0 l/m 0,5 km/h (0 Bft) S-SW 202 0 min 0,0 UV-I 0,2 C 1,5 C 1,6 km/h (1 Bft)
29.11.2011 21:35 2,4 C 9,4 C 1,9 C 2,3 C 2,0 C 0,0 C 90 % 90 % 0 % 1021,1 hPa 0,0 l/m 1,8 km/h (1 Bft) S 180 0 min 0,0 UV-I 0,9 C 2,0 C 4,3 km/h (1 Bft)
29.11.2011 21:40 2,7 C 9,4 C 1,9 C 2,5 C 2,2 C 0,0 C 89 % 90 % 0 % 1021,1 hPa 0,0 l/m 2,1 km/h (1 Bft) O-SO 112 0 min 0,0 UV-I 1,1 C 2,2 C 1,9 km/h (1 Bft)
29.11.2011 21:45 3,0 C 9,4 C 2,1 C 2,8 C 2,3 C 0,0 C 87 % 90 % 0 % 1021,1 hPa 0,0 l/m 2,7 km/h (1 Bft) SW 225 0 min 0,0 UV-I 1,1 C 2,3 C 2,3 km/h (1 Bft)
29.11.2011 21:50 3,2 C 9,4 C 2,3 C 2,9 C 2,3 C 0,0 C 87 % 89 % 0 % 1021,1 hPa 0,0 l/m 2,9 km/h (1 Bft) S 180 0 min 0,0 UV-I 1,2 C 2,3 C 3,1 km/h (1 Bft)
29.11.2011 21:55 3,9 C 9,3 C 2,8 C 3,5 C 2,7 C 0,0 C 86 % 89 % 0 % 1021,1 hPa 0,0 l/m 3,7 km/h (1 Bft) S-SW 202 0 min 0,0 UV-I 1,8 C 2,7 C 6,3 km/h (2 Bft)
29.11.2011 22:00 4,3 C 9,3 C 3,3 C 4,0 C 3,3 C 0,0 C 85 % 89 % 0 % 1021,2 hPa 0,0 l/m 3,7 km/h (1 Bft) SW 225 0 min 0,0 UV-I 2,0 C 3,3 C 2,4 km/h (1 Bft)
29.11.2011 22:05 4,7 C 9,3 C 3,5 C 4,4 C 3,9 C 0,0 C 84 % 88 % 0 % 1021,2 hPa 0,0 l/m 3,5 km/h (1 Bft) S 180 0 min 0,0 UV-I 2,2 C 3,9 C 2,7 km/h (1 Bft)
29.11.2011 22:10 4,8 C 9,3 C 3,9 C 4,6 C 4,1 C 0,0 C 83 % 88 % 0 % 1021,2 hPa 0,0 l/m 4,2 km/h (1 Bft) S 180 0 min 0,0 UV-I 2,2 C 4,1 C 8,0 km/h (2 Bft)
29.11.2011 22:15 5,4 C 9,3 C 4,4 C 5,2 C 4,8 C 0,0 C 82 % 87 % 0 % 1021,2 hPa 0,0 l/m 4,0 km/h (1 Bft) S 180 0 min 0,0 UV-I 2,6 C 4,8 C 4,2 km/h (1 Bft)
29.11.2011 22:20 5,7 C 9,3 C 4,9 C 5,5 C 5,1 C 0,0 C 81 % 86 % 0 % 1021,2 hPa 0,0 l/m 4,0 km/h (1 Bft) SW 225 0 min 0,0 UV-I 2,7 C 5,1 C 6,3 km/h (2 Bft)
29.11.2011 22:25 5,9 C 9,3 C 5,0 C 5,8 C 5,5 C 0,0 C 80 % 85 % 0 % 1021,2 hPa 0,0 l/m 3,4 km/h (1 Bft) S 180 0 min 0,0 UV-I 2,7 C 5,5 C 6,4 km/h (2 Bft)
29.11.2011 22:30 6,0 C 9,2 C 5,2 C 5,9 C 5,6 C 0,0 C 80 % 84 % 0 % 1021,2 hPa 0,0 l/m 3,5 km/h (1 Bft) S 180 0 min 0,0 UV-I 2,8 C 5,6 C 4,5 km/h (1 Bft)
29.11.2011 22:35 6,5 C 9,2 C 5,5 C 6,2 C 5,6 C 0,0 C 79 % 84 % 0 % 1021,2 hPa 0,0 l/m 4,3 km/h (1 Bft) S 180 0 min 0,0 UV-I 3,1 C 5,6 C 2,3 km/h (1 Bft)
29.11.2011 22:40 6,4 C 9,2 C 5,6 C 6,2 C 5,9 C 0,0 C 79 % 83 % 0 % 1020,9 hPa 0,0 l/m 3,7 km/h (1 Bft) N 360 0 min 0,0 UV-I 3,0 C 5,9 C 0,0 km/h (0 Bft)
29.11.2011 22:45 6,7 C 9,2 C 5,9 C 6,5 C 6,1 C 0,0 C 78 % 82 % 0 % 1020,9 hPa 0,0 l/m 3,5 km/h (1 Bft) S 180 0 min 0,0 UV-I 3,1 C 6,1 C 8,2 km/h (2 Bft)
29.11.2011 22:50 6,9 C 9,2 C 6,2 C 6,5 C 5,6 C 0,0 C 77 % 82 % 0 % 1020,9 hPa 0,0 l/m 5,6 km/h (1 Bft) S 180 0 min 0,0 UV-I 3,2 C 4,5 C 8,4 km/h (2 Bft)
29.11.2011 22:55 7,1 C 9,2 C 6,4 C 6,7 C 5,8 C 0,0 C 76 % 80 % 0 % 1020,9 hPa 0,0 l/m 5,6 km/h (1 Bft) SW 225 0 min 0,0 UV-I 3,2 C 4,8 C 2,3 km/h (1 Bft)
29.11.2011 23:00 7,1 C 9,2 C 6,3 C 6,8 C 6,3 C 0,0 C 75 % 80 % 0 % 1021,1 hPa 0,0 l/m 4,2 km/h (1 Bft) S 180 0 min 0,0 UV-I 3,0 C 6,3 C 3,9 km/h (1 Bft)
29.11.2011 23:04 6,9 C 9,2 C 6,1 C 6,7 C 6,3 C 0,0 C 75 % 80 % 0 % 1021,1 hPa 0,0 l/m 3,5 km/h (1 Bft) W-NW 292 0 min 0,0 UV-I 2,8 C 6,3 C 4,2 km/h (1 Bft)
29.11.2011 23:09 6,8 C 9,2 C 6,2 C 6,6 C 6,2 C 0,0 C 75 % 80 % 0 % 1021,1 hPa 0,0 l/m 3,5 km/h (1 Bft) O-NO 67 0 min 0,0 UV-I 2,7 C 6,2 C 5,6 km/h (1 Bft)
29.11.2011 23:14 6,9 C 9,2 C 6,4 C 6,7 C 6,2 C 0,0 C 75 % 80 % 0 % 1021,1 hPa 0,0 l/m 3,7 km/h (1 Bft) W-SW 247 0 min 0,0 UV-I 2,8 C 6,2 C 9,5 km/h (2 Bft)
29.11.2011 23:18 6,9 C 9,2 C 6,4 C 6,7 C 6,2 C 0,0 C 75 % 80 % 0 % 1021,1 hPa 0,0 l/m 3,7 km/h (1 Bft) W-SW 247 0 min 0,0 UV-I 2,8 C 6,2 C 9,5 km/h (2 Bft)
29.11.2011 23:25 7,1 C 9,2 C 6,4 C 6,7 C 5,9 C 0,0 C 75 % 79 % 0 % 1021,1 hPa 0,0 l/m 4,8 km/h (1 Bft) W-SW 247 0 min 0,0 UV-I 3,0 C 5,2 C 5,8 km/h (2 Bft)
29.11.2011 23:30 7,1 C 9,2 C 6,2 C 6,7 C 5,8 C 0,0 C 74 % 79 % 0 % 1021,1 hPa 0,0 l/m 5,0 km/h (1 Bft) W-SW 247 0 min 0,0 UV-I 2,8 C 5,0 C 9,0 km/h (2 Bft)
29.11.2011 23:35 6,8 C 9,2 C 6,1 C 6,3 C 5,4 C 0,0 C 74 % 79 % 0 % 1021,1 hPa 0,0 l/m 5,6 km/h (1 Bft) W-SW 247 0 min 0,0 UV-I 2,5 C 4,3 C 7,6 km/h (2 Bft)
29.11.2011 23:40 6,7 C 9,2 C 5,9 C 6,2 C 5,2 C 0,0 C 75 % 79 % 0 % 1021,3 hPa 0,0 l/m 5,6 km/h (1 Bft) W 270 0 min 0,0 UV-I 2,6 C 4,1 C 5,8 km/h (2 Bft)
29.11.2011 23:45 6,4 C 9,2 C 5,7 C 6,0 C 5,3 C 0,0 C 75 % 80 % 0 % 1021,3 hPa 0,0 l/m 4,0 km/h (1 Bft) W-SW 247 0 min 0,0 UV-I 2,3 C 5,3 C 0,0 km/h (0 Bft)
29.11.2011 23:50 6,3 C 9,2 C 5,7 C 6,0 C 5,4 C 0,0 C 75 % 80 % 0 % 1021,3 hPa 0,0 l/m 3,4 km/h (1 Bft) W-SW 247 0 min 0,0 UV-I 2,2 C 5,4 C 4,5 km/h (1 Bft)
29.11.2011 23:55 6,2 C 9,2 C 5,5 C 5,8 C 5,1 C 0,0 C 75 % 80 % 0 % 1021,3 hPa 0,0 l/m 3,4 km/h (1 Bft) W 270 0 min 0,0 UV-I 2,1 C 5,1 C 5,8 km/h (2 Bft)
_ Min-Zeit 08:00 12:50 08:04 07:55 07:55 00:00 14:35 14:35 00:00 19:00 - 00:00 - - - 00:00 08:00 07:55 00:00
Minimum _ -5,6 C 8,6 C -4,7 C -6,0 C -6,9 C 0,0 C 66 % 74 % 0 % 1020,8 hPa - 0,0 km/h (0 Bft) - - - 0,0 UV-I -7,1 C -6,9 C 0,0 km/h (0 Bft)
_ Max-Zeit 14:30 00:00 14:10 14:25 14:25 13:14 11:25 11:25 11:09 00:00 00:00 15:25 - - 11:25 00:00 22:55 14:25 15:14
Maximum _ 8,6 C 10,6 C 6,7 C 11,5 C 11,5 C 4,5 C 93 % 92 % 100 % 1027,6 hPa 0,0 l/m 6,8 km/h
W-SW (2 Bft)
- - 7 min 0,0 UV-I 3,2 C 11,5 C 14,3 km/h
W-SW (3 Bft)
Durchschnitt _ 0,1 C 9,5 C 0,2 C 0,5 C -0,1 C 0,7 C 85 % 86 % 17 % 1023,2 hPa #0,0 l/m 1,0 km/h (0 Bft) W-SW - #2:37 h 0,0 UV-I -2,2 C -0,1 C 1,4 km/h (1 Bft)
2011 www.wetterstation-wechselburg.de